Location: Ecklingerode
(51.5036°N, 10.3122°E)
Time: 01:42:35
(UTC+00:00)

Cosmos 1408 - Pass Details

Date: 29 October 2020
Orbit: 470 x 492 km, 82.6° (Epoch: 23 November)

Event Time Altitude Azimuth Distance (km) Brightness Sun altitude
Rises 16:37:09 0° 1° (N) 2,557 6.1 -6.9°
Reaches altitude 10° 16:39:41 10° 18° (NNE) 1,676 5.0 -7.3°
Maximum altitude 16:42:27 20° 68° (ENE) 1,175 3.9 -7.7°
Drops below altitude 10° 16:45:14 10° 117° (ESE) 1,675 4.8 -8.1°
Sets 16:47:45 0° 135° (SE) 2,555 5.9 -8.5°
